Flag for Hungary Weather past 2 weeks in Debrecen, Hungary

Now
73 °F

Broken clouds.


Feels Like: 77 °F
Forecast: 55 / 66 °F
Wind: 5 mph from West

Location: Debrecen Airport

Current Time: May 25, 2015 at 3:47:10 PM

Latest Report: May 25, 2015 at 2:45 PM


Visibility: N/A

Pressure: 29.74 "Hg

Humidity: 57%

Dew point: 57 °F

Location of DebrecenLocation

Historic Weather in Debrecen — Graph

°F

Debrecen temperature yesterday

Maximum temperature yesterday: 75 °F (at 2:15 PM)
Minimum temperature yesterday: 52 °F (at 4:45 AM)
Average temperature yesterday: 65 °F

Past Weeks' High & Low Weather Summary

 TemperatureHumidityPressure
High84 °F (May 19, 4:45 PM)100% (May 14, 11:15 AM)30.33 "Hg (May 14, 11:15 AM)
Low41 °F (May 15, 5:15 AM)30% (May 19, 11:45 AM)29.71 "Hg (May 14, 2:45 PM)
Average65 °F62%29.99 "Hg
* Reported May 10 2:15 PM — May 25 2:15 PM, Debrecen, Weather by CustomWeather, © 2015

Note: Actual official high and low records may vary slightly from our data, if they occured in-between our weather recording intervals... More about our weather records

Advertising

Debrecen weather history for previous 24 hours

 ConditionsComfort  
Time TempWeatherWind HumidityBarometerVisibility
2:15 PM
Mon, May 25
75 °FBroken clouds.8 mph57%29.77 "HgN/A
1:45 PM73 °FBroken clouds.6 mph57%29.77 "HgN/A
1:15 PM72 °FBroken clouds.7 mph61%29.80 "HgN/A
12:45 PM73 °FBroken clouds.5 mph57%29.80 "HgN/A
12:15 PM72 °FScattered clouds.2 mph57%29.80 "HgN/A
11:45 AM72 °FPartly sunny.2 mph61%29.80 "HgN/A
11:15 AM72 °FScattered clouds.2 mph61%29.80 "HgN/A
10:45 AM70 °FSunny.3 mph64%29.80 "Hg10 mi
10:15 AM66 °FSunny.3 mph73%29.80 "Hg10 mi
9:45 AM64 °FSunny.5 mph78%29.80 "Hg10 mi
9:15 AM63 °FBroken clouds.6 mph77%29.80 "HgN/A
8:45 AM61 °FBroken clouds.7 mph83%29.83 "HgN/A
8:15 AM59 °FBroken clouds.9 mph82%29.83 "HgN/A
7:45 AM59 °FLight rain. Broken clouds.9 mph82%29.80 "HgN/A
7:15 AM59 °FLight rain. Broken clouds.7 mph82%29.83 "HgN/A
6:45 AM57 °FLight rain. Partly sunny.7 mph88%29.83 "HgN/A
6:15 AM57 °FSunny.2 mph82%29.83 "Hg10 mi
5:45 AM57 °FPassing clouds.2 mph88%29.86 "HgN/A
5:15 AM57 °FPassing clouds.6 mph82%29.83 "HgN/A
4:45 AM57 °FSprinkles. Passing clouds.9 mph82%29.80 "HgN/A
9:49 PM
Sun, May 24
59 °FCool.16 mph77%29.86 "HgN/A
4:15 PM73 °FPartly sunny.8 mph50%29.89 "HgN/A
3:45 PM73 °FPartly sunny.8 mph50%29.89 "HgN/A
3:15 PM75 °FPartly sunny.9 mph50%29.89 "HgN/A
Weather by CustomWeather, © 2015

See weather overviewHow to use our weather pages